Flag for U.S.A. Weather past 2 weeks in Lakewood, Colorado, U.S.A.

Now
63 °F

Broken clouds.


Feels Like: 63 °F
Forecast: 42 / 62 °F
Wind: 3 mph from North

Location: Centennial Airport

Current Time: May 25, 2015 at 2:42:15 PM

Latest Report: May 25, 2015 at 1:53 PM


Visibility: 10 mi

Pressure: 29.80 "Hg

Humidity: 37%

Dew point: 36 °F

Location of LakewoodLocation

Historic Weather in Lakewood — Graph

°F

Lakewood temperature yesterday

Maximum temperature yesterday: 58 °F (at 2:53 PM)
Minimum temperature yesterday: 38 °F (at 5:53 AM)
Average temperature yesterday: 49 °F

Past Weeks' High & Low Weather Summary

 TemperatureHumidityPressure
High71 °F (May 14, 2:53 PM)100% (May 19, 12:53 AM)30.34 "Hg (May 19, 12:53 AM)
Low31 °F (May 11, 4:53 AM)22% (May 14, 10:53 AM)29.56 "Hg (May 16, 12:53 PM)
Average49 °F72%29.96 "Hg
* Reported May 10 12:53 PM — May 25 12:53 PM, Lakewood, Weather by CustomWeather, © 2015

Note: Actual official high and low records may vary slightly from our data, if they occured in-between our weather recording intervals... More about our weather records

Advertising

Lakewood weather history for previous 24 hours

 ConditionsComfort  
Time TempWeatherWind HumidityBarometerVisibility
12:53 PM
Mon, May 25
63 °FBroken clouds.12 mph41%29.80 "Hg10 mi
11:53 AM61 °FBroken clouds.6 mph41%29.82 "Hg10 mi
10:53 AM58 °FBroken clouds.5 mph46%29.83 "Hg10 mi
9:53 AM55 °FScattered clouds.3 mph55%29.83 "Hg10 mi
8:53 AM53 °FBroken clouds.5 mph61%29.83 "Hg10 mi
7:53 AM50 °FScattered clouds.3 mph68%29.85 "Hg10 mi
6:53 AM46 °FPassing clouds.6 mph83%29.83 "Hg10 mi
5:53 AM41 °FPassing clouds.8 mph89%29.83 "Hg10 mi
4:53 AM42 °FPassing clouds.7 mph85%29.83 "Hg10 mi
3:53 AM42 °FPassing clouds.7 mph89%29.83 "Hg10 mi
2:53 AM43 °FPassing clouds.5 mph89%29.81 "Hg10 mi
1:53 AM46 °FPartly cloudy.5 mph83%29.80 "Hg10 mi
12:53 AM46 °FPartly cloudy.6 mph79%29.82 "Hg10 mi
11:53 PM
Sun, May 24
46 °FPassing clouds.5 mph83%29.83 "Hg10 mi
10:53 PM48 °FPassing clouds.7 mph77%29.83 "Hg10 mi
9:53 PM50 °FPartly cloudy.8 mph68%29.80 "Hg10 mi
8:53 PM51 °FBroken clouds.6 mph69%29.78 "Hg10 mi
7:53 PM52 °FBroken clouds.6 mph72%29.78 "Hg10 mi
6:53 PM53 °FBroken clouds.7 mph69%29.78 "Hg10 mi
5:53 PM55 °FBroken clouds.6 mph57%29.78 "Hg10 mi
4:53 PM54 °FBroken clouds.5 mph59%29.79 "Hg10 mi
3:53 PM54 °FPartly sunny.9 mph62%29.81 "Hg10 mi
2:53 PM58 °FPartly sunny.8 mph47%29.79 "Hg10 mi
Weather by CustomWeather, © 2015

See weather overviewHow to use our weather pages